Location: Unspecified
(0.0000°N, 0.0000°E)
Time: 15:58:03
(UTC+02:00)

Iridium 47 - Visible Passes

Search period start: 25 July 2016 00:00
Search period end: 04 August 2016 00:00
Orbit: 776 x 779 km, 86.4° (Epoch: 24 July)

Date Brightness Start Highest point End Pass type
(mag) Time Alt. Az. Time Alt. Az. Time Alt. Az.
25 Jul 6.7 07:18:52 10° SSE 07:23:38 37° E 07:28:23 10° NNE visible
26 Jul 7.9 06:46:56 10° SE 06:50:11 17° E 06:53:24 10° NE visible
27 Jul 7.8 20:26:41 10° NW 20:30:34 21° W 20:34:28 10° SW visible
28 Jul 5.7 07:18:34 10° S 07:23:42 60° E 07:28:49 10° N visible
29 Jul 7.2 06:45:54 10° SSE 06:50:15 27° E 06:54:34 10° NNE visible
30 Jul 8.1 06:14:57 10° ESE 06:16:47 12° E 06:18:37 10° ENE visible
30 Jul 8.2 20:28:19 10° WNW 20:30:37 13° W 20:32:57 10° WSW visible
31 Jul 5.0 07:18:32 10° S 07:23:46 83° W 07:28:58 10° N visible
01 Aug 6.2 06:45:23 10° SSE 06:50:19 43° E 06:55:13 10° NNE visible
02 Aug 7.6 06:13:09 10° SE 06:16:52 20° E 06:20:32 10° NE visible
03 Aug 5.2 07:18:47 10° SSW 07:23:50 51° W 07:28:51 10° NNW visible
